Location: Stoke Bliss
(52.2667°N, 2.5167°W)
Time: 20:42:09
(UTC+00:00)

COSMOS 2251 DEB - Visible Passes

Search period start: 19 September 2021 00:00
Search period end: 29 September 2021 00:00
Orbit: 759 x 784 km, 74.0° (Epoch: 19 September)

Date Brightness Start Highest point End Pass type
(mag) Time Alt. Az. Time Alt. Az. Time Alt. Az.
19 Sep ? 01:38:07 10° NNW 01:40:59 33° NNW 01:40:59 33° NNW visible
19 Sep ? 23:20:52 10° N 23:24:04 16° NE 23:24:46 15° NE visible
20 Sep ? 01:02:07 10° NNW 01:05:03 32° N 01:05:03 32° N visible
20 Sep ? 02:44:49 10° NW 02:45:21 12° NW 02:45:21 12° NW visible
20 Sep ? 19:17:03 10° NNW 19:17:22 10° NNW 19:17:41 10° NNW visible
20 Sep ? 22:45:23 10° N 22:47:31 12° NNE 22:48:53 11° NE visible
21 Sep ? 00:26:11 10° NNW 00:29:11 29° N 00:29:11 29° N visible
21 Sep ? 02:08:26 10° NW 02:09:30 16° NW 02:09:30 16° NW visible
21 Sep ? 18:38:22 10° WNW 18:40:45 13° NNW 18:43:08 10° N visible
21 Sep ? 23:50:19 10° N 23:53:23 25° NNE 23:53:23 25° NNE visible
22 Sep ? 01:32:13 10° NNW 01:33:40 19° NW 01:33:40 19° NW visible
22 Sep ? 23:14:31 10° N 23:17:36 20° NNE 23:17:36 20° NNE visible
23 Sep ? 00:56:08 10° NNW 00:57:55 22° NNW 00:57:55 22° NNW visible
23 Sep ? 22:38:48 10° N 22:41:53 16° NE 22:41:53 16° NE visible
24 Sep ? 00:20:07 10° NNW 00:22:11 24° NNW 00:22:11 24° NNW visible
24 Sep ? 22:03:18 10° N 22:05:35 13° NNE 22:06:11 12° NE visible
24 Sep ? 23:44:11 10° NNW 23:46:29 24° N 23:46:29 24° N visible
25 Sep ? 01:26:28 10° NW 01:26:47 12° NW 01:26:47 12° NW visible
25 Sep ? 23:08:18 10° NNW 23:10:49 23° N 23:10:49 23° N visible
26 Sep ? 00:50:14 10° NNW 00:51:08 15° NNW 00:51:08 15° NNW visible
26 Sep ? 22:32:29 10° N 22:35:11 20° NNE 22:35:11 20° NNE visible
27 Sep ? 00:14:08 10° NNW 00:15:29 18° NNW 00:15:29 18° NNW visible
27 Sep ? 21:56:46 10° N 21:59:33 17° NNE 21:59:33 17° NNE visible
27 Sep ? 23:38:06 10° NNW 23:39:52 21° NNW 23:39:52 21° NNW visible
28 Sep ? 21:21:13 10° N 21:23:38 13° NNE 21:23:57 13° NE visible
28 Sep ? 23:02:09 10° NNW 23:04:16 23° N 23:04:16 23° N visible
